Вернуться в каталог

FENGYUN 1C DEB

LostSSO
NORAD 31518·DEBRIS·🇨🇳 China

Запущен May 10, 1999 с Taiyuan Satellite Launch Center

Loading…

Ближайшие Пролёты (ближайшие 24 часа)

TLE

УстаревшееSource: Space-Track

Эпоха: Nov 11, 2017, 16:30 UTC

1 31518U 99025BXH 17315.68762109 +.00001196 +00000-0 +71446-3 0  9991
2 31518 099.1743 281.2477 0097542 138.7924 221.9796 14.06800122536166

Отслеживайте FENGYUN 1C DEB в реальном времени с AllMySat

Download on the App Store